Montross, Virginia, United States (22520)
Lat: 38.09N, Lon: 76.83W
Wx Zone: VAZ075
Local Info
Past Weather Observations for Wednesday, April 27, 2016

NOTE: This archive is for the closest National Weather Service station to Montross. Information may differ from the station used for current weather conditions.

Click here for Long-term Archive

Time Weather Temperature Dewpoint Humidity Pressure Winds Precip Visibility
23:52
Overcast
54°F / 12°C 48°F / 9°C 82% 29.92 in
(1013 mb)
Calm - 10SM
23:44
Overcast
52°F / 11°C 48°F / 9°C 88% 29.92 in
(1013 mb)
Calm - 10SM
23:16
Partly Cloudy
54°F / 12°C 48°F / 9°C 82% 29.92 in
(1013 mb)
Calm - 10SM
22:52
Mostly Cloudy
54°F / 12°C 48°F / 9°C 82% 29.95 in
(1014 mb)
Calm - 10SM
21:52
Overcast
54°F / 12°C 48°F / 9°C 82% 29.95 in
(1014 mb)
SSE 4.6 mph
(SSE 7 kph)
- 10SM
21:31
Overcast
54°F / 12°C 48°F / 9°C 82% 29.95 in
(1014 mb)
E 6.9 mph
(E 11 kph)
- 10SM
20:52
Overcast
54°F / 12°C 48°F / 9°C 82% 29.95 in
(1014 mb)
E 8.1 mph
(E 13 kph)
- 10SM
19:52
Overcast
54°F / 12°C 50°F / 10°C 88% 29.92 in
(1013 mb)
ENE 8.1 mph
(ENE 13 kph)
- 10SM
18:52
Overcast
54°F / 12°C 50°F / 10°C 88% 29.92 in
(1013 mb)
ENE 6.9 mph
(ENE 11 kph)
0.00 in
(0.00 mm)
10SM
18:40
Overcast
Light Rain
55°F / 13°C 50°F / 10°C 82% 29.92 in
(1013 mb)
NE 9.2 mph
(NE 15 kph)
0.00 in
(0.00 mm)
10SM
17:52
Overcast
55°F / 13°C 50°F / 10°C 82% 29.92 in
(1013 mb)
ENE 8.1 mph
(ENE 13 kph)
- 10SM
16:52
Overcast
55°F / 13°C 50°F / 10°C 82% 29.92 in
(1013 mb)
ENE 5.8 mph
(ENE 9 kph)
- 10SM
15:52
Overcast
55°F / 13°C 50°F / 10°C 82% 29.89 in
(1012 mb)
NE 6.9 mph
(NE 11 kph)
- 10SM
14:52
Overcast
55°F / 13°C 48°F / 9°C 77% 29.92 in
(1013 mb)
NE 6.9 mph
(NE 11 kph)
- 10SM
13:52
Overcast
55°F / 13°C 48°F / 9°C 77% 29.92 in
(1013 mb)
NE 6.9 mph
(NE 11 kph)
- 10SM
12:52
Overcast
54°F / 12°C 48°F / 9°C 82% 29.92 in
(1013 mb)
E 6.9 mph
(E 11 kph)
- 10SM
11:52
Overcast
54°F / 12°C 50°F / 10°C 88% 29.92 in
(1013 mb)
NE 8.1 mph
(NE 13 kph)
0.00 in
(0.00 mm)
10SM
10:52
Overcast
Light Rain
54°F / 12°C 48°F / 9°C 82% 29.92 in
(1013 mb)
E 8.1 mph
(E 13 kph)
0.00 in
(0.00 mm)
8SM
09:52
Overcast
Light Rain
52°F / 11°C 48°F / 9°C 88% 29.92 in
(1013 mb)
E 11.5 mph
(E 19 kph)
0.00 in
(0.00 mm)
10SM
09:35
Overcast
52°F / 11°C 48°F / 9°C 88% 29.92 in
(1013 mb)
E 10.4 mph
(E 17 kph)
0.00 in
(0.00 mm)
10SM
08:52
Overcast
Light Rain
54°F / 12°C 48°F / 9°C 82% 29.92 in
(1013 mb)
ENE 9.2 mph
(ENE 15 kph)
0.00 in
(0.00 mm)
8SM
07:52
Overcast
Light Rain
54°F / 12°C 50°F / 10°C 88% 29.92 in
(1013 mb)
ENE 10.4 mph
(ENE 17 kph)
0.00 in
(0.00 mm)
10SM
06:52
Overcast
Light Rain
54°F / 12°C 50°F / 10°C 88% 29.89 in
(1012 mb)
E 13.8 mph
(E 22 kph)
0.01 in
(0.25 mm)
7SM
06:48
Overcast
Light Rain
54°F / 12°C 50°F / 10°C 88% 29.89 in
(1012 mb)
E 12.7 mph
(E 20 kph)
0.01 in
(0.25 mm)
7SM
05:52
Overcast
Light Rain
54°F / 12°C 52°F / 11°C 94% 29.89 in
(1012 mb)
ENE 9.2 mph
(ENE 15 kph)
0.00 in
(0.00 mm)
7SM
04:52
Overcast
Light Rain
55°F / 13°C 54°F / 12°C 94% 29.8 in
(1009 mb)
ENE 11.5 mph
(ENE 19 kph)
0.00 in
(0.00 mm)
7SM
03:52
Overcast
Fog And Mist
61°F / 16°C 57°F / 14°C 88% 29.8 in
(1009 mb)
E 12.7 mph
(E 20 kph)
- 5SM
03:47
Overcast
Fog And Mist
61°F / 16°C 57°F / 14°C 88% 29.8 in
(1009 mb)
ESE 10.4 mph
(ESE 17 kph)
- 5SM
02:52
Overcast
64°F / 18°C 63°F / 17°C 94% 29.77 in
(1008 mb)
NE 5.8 mph
(NE 9 kph)
- 10SM
01:52
Partly Cloudy
64°F / 18°C 61°F / 16°C 88% 29.74 in
(1007 mb)
NNW 8.1 mph
(NNW 13 kph)
- 10SM
00:52
Overcast
66°F / 19°C 61°F / 16°C 83% 29.74 in
(1007 mb)
SSW 11.5 mph
(SSW 19 kph)
- 9SM
Time Weather Temperature Dewpoint Humidity Pressure Winds Precip Visibility


Weather for websites

WeatherForYou.com, LLC is not responsible for any damages or problems caused by this service. Current weather conditions are obtained from the closest station including government and personal stations which may have varying degrees of accuracy. Weather forecasts are derived from the NOAA NDFD. Like all things, this site belongs to Jesus Christ... He just trusts us to maintain it. If you have any questions or comments email webmaster@weatherforyou.com

Copyright © 2016, WeatherForYou.com LLC. All rights reserved.